This is the latest recevied weather packets stored in our database for station/object F4ETJ-1. If no packets are shown the sender has not sent any weather packets the latest 10 day(s).
| Time | Temp. | Humidity | Pressure | Rain* | Wind** | Luminosity | Snow |
|---|---|---|---|---|---|---|---|
| 1787860339 | 19.44° C | 84% | 1007 hPa | 0 mm | - | - | - |
| 1787859978 | 19.44° C | 85% | 1007 hPa | 0 mm | - | - | - |
| 1787859618 | 19.44° C | 85% | 1006.9 hPa | 0 mm | - | - | - |
| 1787859258 | 20° C | 85% | 1006.6 hPa | 0 mm | - | - | - |
| 1787858897 | 20° C | 84% | 1006.5 hPa | 0 mm | - | - | - |
| 1787858537 | 20.56° C | 81% | 1006.6 hPa | 0 mm | - | - | - |
| 1787858177 | 20.56° C | 80% | 1006.5 hPa | 0 mm | - | - | - |
| 1787857816 | 20.56° C | 81% | 1006.2 hPa | 0 mm | - | - | - |
| 1787857456 | 21.11° C | 79% | 1006 hPa | 0 mm | - | - | - |
| 1787857095 | 21.67° C | 78% | 1005.9 hPa | 0 mm | - | - | - |
| 1787856735 | 21.67° C | 77% | 1006 hPa | 0 mm | - | - | - |
| 1787856375 | 21.67° C | 76% | 1006.1 hPa | 0 mm | - | - | - |
| 1787856014 | 22.22° C | 74% | 1006.1 hPa | 0 mm | - | - | - |
| 1787855654 | 22.78° C | 73% | 1006.1 hPa | 0 mm | - | - | - |
| 1787855294 | 22.78° C | 70% | 1006.1 hPa | 0 mm | - | - | - |
| 1787854933 | 23.33° C | 71% | 1006 hPa | 0 mm | - | - | - |
| 1787854573 | 23.33° C | 68% | 1006.2 hPa | 0 mm | - | - | - |
| 1787854213 | 23.89° C | 69% | 1006.3 hPa | 0 mm | - | - | - |
| 1787853852 | 23.89° C | 68% | 1006.3 hPa | 0 mm | - | - | - |
| 1787853492 | 23.89° C | 67% | 1006.2 hPa | 0 mm | - | - | - |
| 1787853132 | 24.44° C | 63% | 1006.3 hPa | 0 mm | - | - | - |
| 1787852771 | 24.44° C | 64% | 1006.3 hPa | 0 mm | - | - | - |
| 1787852411 | 24.44° C | 64% | 1006.4 hPa | 0 mm | - | - | - |
| 1787852051 | 23.89° C | 64% | 1006.4 hPa | 0 mm | - | - | - |
| 1787851690 | 23.33° C | 67% | 1006.5 hPa | 0 mm | - | - | - |
* Rain latest hour (hover to see other rain measurements)
** Current wind speed in m/s (hover to see current wind gust speed)